CZ-6A DEB, 54528

Orbit data source: Space-Track

CZ-6A DEB, 54528 is space debris in SSO originally from a launch on Fri, 11 Nov 2022 UTC launched from the Taiyaun Space Center, China (TSC). Debris objects in space refer to the collection of defunct objects orbiting the Earth. Examples of debris include non-operational satellites, rocket bodies, and fragments generated from explosions, collisions, or faulty payload assembly.

Loading next visibility...
Identifier
54528, 2022-151KG
Orbit
SSO
Country
Flag of CNCN / PRC
Related business
Manufacturer
SAST
Mission
Spacecraft
Bus & Motor
Unknown
Mass
Unknown
Launch date (UTC)
2022-11-11 (4 years ago)
Launch vehicle
Unknown
Launch site
Taiyaun Space Center, China (TSC)
Object type
Payload
Rocket body
Debris
Shape & HBR
Unknown shape, 0.2 m
Radar Cross Section
Medium (>0.1 m² and <1 m²)

Expand to show TLE details & history
Last TLE update: 14 hours ago

TLE from 14 hours ago
0 CZ-6A DEB
1 54528U 22151KG  26263.88067015  .00001425  00000-0  37049-3 0  9997
2 54528  98.5292 297.6449 0091049  30.7259 329.9221 14.48794677202886
Epoch: 2026-09-20T21:08Z
TLE epoch observation values (Epoch: 2026-09-20T21:08:09.900Z)
Latitude
Longitude
-19.16485°
Altitude
676.685 km
Speed
7.548 km/s
True Right ascension
19h 50m 34s
True Declination
0° 00' 00"
Sunlit
Object was in full shadow at epoch
Visualization orbit readout
Latitude
Unknown
Longitude
Unknown
Altitude
Unknown
Speed
Unknown
Apparent Right ascension
Unknown
Apparent Declination
Unknown
Sunlit
N/A
Visualization observer readout
Local Sidereal Time
04:01:02
Azimuth
Unknown
Elevation
Unknown
Doppler factor
Unknown
Orbital elements
Apogee altitude
791.388 km
Perigee altitude
662.01 km
Semi-major axis
7,104.836 km
Eccentricity
0.0091
Inclination
98.5292°
RAAN
297.6449°
Arg. of periapsis
30.7259°
True anomaly
329.39401°
Mean anomaly
329.9221°
Eccentric anomaly
329.65858°
Mean motion
3.6242 °/min
Orbital period
99.33 mins
BSTAR
0.00037049
Loading maneuver chart data...
Computing Atmospheric mass density...
Loading historical data...
Loading historical data...
Loading historical data...
Loading historical data...
Loading historical data...
Loading historical data...
Loading historical data...

Documentation

Showing up to 5 results
|